PROGRESS-MS 17 (48869 NORAD) Tracking and Keplerian Element Data

This shows tracking and keplerian element data for the satellite.

Feedback or suggestion? Click here.




ElementValue
Catalog48869
NamePROGRESS-MS 17
Epoch Orbit30414
Epoch Day268.54952546
Epoch Year2021
RAAN206.4913
Inclination51.6438
Eccentricity0.000428
Argument of Perigee25.5661
Mean Anonmoly314.1772
Mean Motion15.48869606
Decay Rate0.00025229
L11 48869U 21057A 21268.54952546 .00025229 00000-0 46666-3 0 9990
L22 48869 51.6438 206.4913 0004280 25.5661 314.1772 15.48869606304148

Live tracking and technical data element details for PROGRESS-MS 17 (NORAD 48869). PROGRESS-MS 17 can be tracked NOW for your location showing map with azimuth and elevation plus other details from your city location.

Track the satellite on the map from your city or location and see movement details for azimuth, elevation, latitude, longitude, range, height, and movement on the map or in text.







IsCatalogInMostPopularTable: catalog: 48869, numindb: 20
Update: records affected: 1



GetName: 48869 PROGRESS-MS 17

Hit Count: updated at: Sun, 26 Sep 2021 16:11:22 GMT